CW4226 Weather Reports


time (UTC)temp
C
wind
direction
speed
KPH
gust
KPH
rain 1hr
cm
rain 24hr
cm
rain mn
cm
humidity
%
barometer
mb
20211017154832 9 286 1.6 4.8 0.00 1.32 0.00 90 1005.5
20211017154334 10 100 1.6 8.0 0.00 1.32 0.00 89 1005.4
20211017153834 10 260 1.6 11.3 0.00 1.32 0.00 89 1005.4
20211017153332 10 18 3.2 8.0 0.00 1.32 0.00 88 1005.3
20211017151834 10 121 4.8 9.7 0.00 1.32 0.00 92 1005.5
20211017151333 9 251 3.2 9.7 0.00 1.32 0.00 95 1005.6
20211017150832 9 195 3.2 9.7 0.00 1.32 0.00 95 1005.6
20211017150331 9 139 1.6 8.0 0.00 1.32 0.00 95 1005.5
20211017144831 9 269 3.2 8.0 0.00 1.32 0.00 93 1005.8
20211017144335 9 117 1.6 4.8 0.00 1.32 0.00 95 1005.6
20211017143834 10 270 3.2 9.7 0.00 1.32 0.00 94 1005.6
20211017143332 10 222 3.2 11.3 0.00 1.32 0.00 93 1005.6
20211017141832 10 101 1.6 3.2 0.00 1.32 0.00 94 1005.5
20211017141331 10 329 3.2 9.7 0.00 1.32 0.00 93 1005.4
20211017140831 10 168 3.2 9.7 0.00 1.32 0.00 95 1005.4
20211017140332 10 235 3.2 19.3 0.00 1.32 0.00 96 1005.2
20211017134831 9 135 3.2 11.3 0.00 1.32 0.00 100 1005.3
20211017134331 8 212 3.2 11.3 0.00 1.32 0.00 100 1005.4
20211017133831 8 139 3.2 11.3 0.00 1.32 0.00 100 1005.5
20211017133332 7 185 3.2 8.0 0.00 1.32 0.00 100 1005.5
20211017131835 7 221 4.8 8.0 0.00 1.32 0.00 100 1005.4
20211017131331 8 1 3.2 4.8 0.00 1.32 0.00 100 1005.4
20211017130834 7 149 1.6 4.8 0.00 1.32 0.00 100 1005.3
20211017130331 7 163 1.6 4.8 0.00 1.32 0.00 100 1005.3
20211017124831 7 159 1.6 9.7 0.00 1.32 0.00 100 1005.2
20211017124331 7 177 1.6 4.8 0.00 1.32 0.00 100 1005.2
20211017123834 7 197 1.6 4.8 0.00 1.32 0.00 100 1005.2
20211017123332 7 153 1.6 4.8 0.00 1.32 0.00 100 1005.2
20211017121831 6 62 1.6 8.0 0.00 1.32 0.00 100 1005.2
20211017121334 6 152 1.6 4.8 0.00 1.32 0.00 100 1005.2
20211017120831 6 106 1.6 8.0 0.00 1.32 0.00 100 1005.2
20211017120334 5 228 3.2 9.7 0.00 1.32 0.00 100 1005.3
20211017114834 5 176 1.6 4.8 0.00 1.32 0.00 100 1005.4
20211017114331 5 191 1.6 4.8 0.00 1.32 0.00 100 1005.2
20211017113832 5 182 1.6 4.8 0.00 1.32 0.00 100 1005.1
20211017113334 5 164 1.6 4.8 0.00 1.32 0.00 100 1005.0
20211017111834 5 102 3.2 4.8 0.00 1.32 0.00 100 1005.0
20211017111331 5 181 1.6 3.2 0.00 1.32 0.00 100 1005.0
20211017110831 5 181 1.6 3.2 0.00 1.32 0.00 100 1004.9
20211017110333 5 161 1.6 4.8 0.00 1.32 0.00 100 1004.7
20211017104834 5 124 0.0 1.6 0.00 1.32 0.00 100 1004.7
20211017104331 5 124 1.6 3.2 0.00 1.32 0.00 100 1004.7
20211017103834 5 164 1.6 4.8 0.00 1.32 0.00 100 1004.6
20211017103334 5 142 1.6 3.2 0.00 1.32 0.00 100 1004.6
20211017101834 6 190 1.6 4.8 0.00 1.32 0.00 100 1004.6
20211017101331 6 169 0.0 3.2 0.00 1.32 0.00 100 1004.6
20211017100833 5 111 1.6 4.8 0.00 1.32 0.00 100 1004.6
20211017100334 5 158 0.0 4.8 0.00 1.32 0.00 100 1004.7
20211017094834 5 172 1.6 3.2 0.00 1.32 0.00 100 1004.5
20211017094331 5 172 1.6 3.2 0.00 1.32 0.00 100 1004.5
20211017093832 5 172 1.6 3.2 0.00 1.32 0.00 100 1004.5
20211017093334 5 172 1.6 4.8 0.00 1.32 0.00 100 1004.3
20211017091834 6 162 0.0 4.8 0.00 1.32 0.00 100 1004.0
20211017091332 6 191 0.0 8.0 0.00 1.32 0.00 100 1004.0
20211017090831 6 161 1.6 8.0 0.00 1.32 0.00 100 1004.0
20211017090334 6 165 3.2 4.8 0.00 1.32 0.00 100 1003.9
20211017084834 6 97 1.6 4.8 0.00 1.32 0.00 100 1003.9
20211017084331 6 102 1.6 4.8 0.00 1.32 0.00 100 1003.9
20211017083831 6 140 1.6 4.8 0.00 1.32 0.00 100 1003.8
20211017083334 6 124 1.6 4.8 0.00 1.32 0.00 100 1003.8
20211017081834 6 352 1.6 8.0 0.00 1.32 0.00 100 1003.9
20211017081331 6 123 3.2 4.8 0.00 1.32 0.00 100 1003.7
20211017080834 6 113 1.6 4.8 0.00 1.32 0.00 100 1003.6
20211017080334 6 139 1.6 4.8 0.00 1.32 0.00 100 1003.5
20211017074834 6 250 3.2 4.8 0.00 1.32 0.00 100 1003.8
20211017074331 6 131 1.6 4.8 0.00 1.32 0.00 100 1003.8
20211017073831 6 107 1.6 4.8 0.00 1.32 0.00 100 1003.8
20211017073337 6 122 1.6 4.8 0.00 1.32 0.00 100 1003.8
20211017071832 6 235 1.6 3.2 0.00 1.32 0.00 100 1003.8
20211017071335 6 130 1.6 4.8 0.00 1.32 0.00 100 1003.8
20211017070832 7 353 1.6 4.8 0.00 1.32 0.00 100 1003.8
20211017070332 7 284 1.6 8.0 0.00 1.32 0.00 100 1003.7
20211017064850 7 51 1.6 4.8 0.00 1.32 0.00 100 1003.6
20211017064331 7 84 0.0 4.8 0.00 1.32 0.00 100 1003.7
20211017063831 7 344 3.2 8.0 0.00 1.32 0.00 100 1003.7
20211017063331 7 134 1.6 11.3 0.00 1.32 0.00 100 1003.7
20211017061835 7 89 1.6 3.2 0.00 1.32 0.00 100 1003.7
20211017061331 7 73 3.2 4.8 0.00 1.32 0.00 100 1003.7
20211017060832 7 351 3.2 4.8 0.00 1.32 0.00 100 1003.7
20211017060332 7 266 1.6 4.8 0.00 1.32 0.00 100 1003.3
20211017054831 7 170 0.0 4.8 0.00 1.32 0.00 100 1003.2
20211017054334 7 294 1.6 8.0 0.00 1.32 0.00 100 1003.2
20211017053835 7 172 3.2 4.8 0.00 1.32 0.00 100 1003.2
20211017053334 8 98 1.6 11.3 0.00 1.32 0.00 100 1003.4
20211017051831 8 188 1.6 4.8 0.00 1.32 0.00 100 1003.4
20211017051331 8 65 1.6 3.2 0.00 1.32 0.00 100 1003.4
20211017050835 8 342 1.6 4.8 0.00 1.32 0.00 100 1003.4
20211017050332 8 110 0.0 4.8 0.00 1.32 0.00 100 1003.3
20211017044831 8 88 1.6 4.8 0.00 1.32 0.00 100 1003.4
20211017044335 8 210 3.2 4.8 0.00 1.32 0.00 100 1003.4
20211017043831 8 90 0.0 4.8 0.00 1.32 0.00 100 1003.4
20211017043335 8 167 1.6 8.0 0.00 1.32 0.00 100 1003.4
20211017041834 8 135 1.6 3.2 0.00 1.32 0.00 100 1003.6
20211017041331 8 151 3.2 4.8 0.00 1.32 0.00 100 1003.6
20211017040835 8 153 0.0 4.8 0.00 1.32 0.00 100 1003.6
20211017040334 8 353 1.6 4.8 0.00 1.32 0.00 100 1003.7
20211017034834 8 30 3.2 4.8 0.00 1.32 1.32 100 1003.8
20211017034331 8 281 0.0 3.2 0.00 1.32 1.32 100 1003.9
20211017033832 8 233 1.6 4.8 0.00 1.32 1.32 100 1003.8
20211017033331 8 194 0.0 4.8 0.00 1.32 1.32 100 1003.7
20211017031831 8 163 1.6 4.8 0.00 1.32 1.32 100 1003.7
20211017031331 8 155 1.6 4.8 0.00 1.32 1.32 100 1003.6
20211017030831 8 127 1.6 4.8 0.00 1.32 1.32 100 1003.5
20211017030331 8 202 3.2 4.8 0.00 1.32 1.32 100 1003.7
20211017024832 8 228 0.0 3.2 0.00 1.32 1.32 100 1003.7
20211017024334 8 78 1.6 4.8 0.00 1.32 1.32 100 1003.9
20211017023831 8 173 1.6 3.2 0.00 1.32 1.32 100 1004.1
20211017023334 8 192 0.0 8.0 0.00 1.32 1.32 100 1003.9
20211017021831 8 118 1.6 4.8 0.00 1.32 1.32 100 1003.9
20211017021331 8 331 3.2 8.0 0.00 1.32 1.32 100 1003.8
20211017020831 8 101 1.6 11.3 0.00 1.32 1.32 100 1003.7
20211017020331 8 128 1.6 4.8 0.00 1.32 1.32 100 1003.8
20211017014831 8 74 1.6 8.0 0.00 1.32 1.32 100 1003.3
20211017014331 9 325 3.2 8.0 0.00 1.32 1.32 100 1003.4
20211017013834 9 348 3.2 4.8 0.00 1.32 1.32 100 1003.5
20211017013331 9 75 3.2 8.0 0.00 1.32 1.32 100 1003.4
20211017011831 9 82 3.2 11.3 0.00 1.32 1.32 100 1003.4
20211017011332 10 155 3.2 4.8 0.00 1.32 1.32 100 1003.4
20211017010835 10 117 1.6 4.8 0.00 1.32 1.32 100 1002.9
20211017010331 10 99 3.2 9.7 0.00 1.32 1.32 100 1002.9
20211017004834 10 334 3.2 4.8 0.03 1.32 1.32 100 1002.2
20211017004331 10 271 1.6 8.0 0.03 1.32 1.32 100 1002.0
20211017003831 10 92 3.2 4.8 0.03 1.32 1.32 100 1001.8
20211017003331 10 26 1.6 16.1 0.03 1.32 1.32 100 1001.8
20211017001831 10 46 3.2 4.8 0.05 1.32 1.32 100 1001.9
20211017001331 10 153 1.6 4.8 0.05 1.32 1.32 100 1001.8
20211017000834 10 323 3.2 4.8 0.08 1.32 1.32 100 1001.4
20211017000332 10 90 3.2 9.7 0.10 1.32 1.32 100 1001.4
20211016234831 10 194 3.2 9.7 0.08 1.30 1.30 100 1002.0
20211016234334 10 275 3.2 4.8 0.08 1.30 1.30 100 1001.5
20211016233834 10 90 1.6 9.7 0.10 1.30 1.30 100 1001.3
20211016233331 10 156 1.6 9.7 0.13 1.30 1.30 100 1001.2
20211016231834 10 46 1.6 4.8 0.15 1.27 1.27 100 1001.4
20211016231331 10 288 3.2 4.8 0.18 1.27 1.27 100 1001.7
20211016230834 10 93 3.2 4.8 0.15 1.24 1.24 100 1001.8
20211016230335 10 355 3.2 9.7 0.15 1.24 1.24 100 1002.0
20211016224831 10 36 1.6 4.8 0.23 1.24 1.24 100 1001.9
20211016224331 10 233 3.2 14.5 0.25 1.24 1.24 100 1001.5
20211016223831 11 105 8.0 8.0 0.28 1.22 1.22 100 1001.4
20211016223331 11 264 3.2 19.3 0.33 1.19 1.19 100 1001.3
20211016221834 11 88 4.8 14.5 0.53 1.14 1.14 100 1000.9
20211016221332 11 354 3.2 19.3 0.51 1.12 1.12 100 1000.7
20211016220831 11 93 3.2 4.8 0.51 1.12 1.12 100 1000.2
20211016220335 11 32 3.2 12.9 0.48 1.09 1.09 100 1000.0
20211016214834 12 52 3.2 9.7 0.43 1.02 1.02 100 1000.6
20211016214331 12 130 4.8 16.1 0.41 0.99 0.99 100 1000.6
20211016213831 12 283 4.8 16.1 0.36 0.94 0.94 100 1000.4
20211016213334 13 40 3.2 14.5 0.28 0.86 0.86 100 999.8
20211016211833 13 176 1.6 4.8 0.08 0.61 0.61 100 998.7
20211016211334 13 331 1.6 4.8 0.10 0.61 0.61 100 998.2
20211016210831 13 264 4.8 11.3 0.13 0.61 0.61 100 998.0
20211016210334 13 268 3.2 11.3 0.13 0.61 0.61 100 998.1
20211016204833 14 5 1.6 4.8 0.13 0.58 0.58 100 998.3
20211016204331 14 250 1.6 4.8 0.13 0.58 0.58 100 998.5
20211016203831 14 180 3.2 8.0 0.13 0.58 0.58 100 998.5
20211016203334 14 251 0.0 4.8 0.13 0.58 0.58 100 998.7
20211016201834 14 188 3.2 4.8 0.08 0.53 0.53 100 998.4
20211016201331 14 177 0.0 4.8 0.05 0.51 0.51 100 998.4
20211016200831 14 135 1.6 9.7 0.03 0.48 0.48 100 998.1
20211016200334 14 184 4.8 11.3 0.03 0.48 0.48 100 998.4
20211016194834 15 189 0.0 4.8 0.00 0.46 0.46 100 998.6
20211016194331 15 189 0.0 3.2 0.00 0.46 0.46 100 998.5
20211016193831 15 189 1.6 4.8 0.00 0.46 0.46 100 998.2
20211016193334 15 168 0.0 4.8 0.00 0.46 0.46 100 998.1
20211016191831 15 200 1.6 4.8 0.41 0.46 0.46 100 998.0
20211016191332 15 184 3.2 8.0 0.46 0.46 0.46 100 997.9
20211016190831 15 242 1.6 4.8 0.46 0.46 0.46 100 997.9
20211016190331 15 155 0.0 4.8 0.46 0.46 0.46 100 997.9
20211016184834 15 131 1.6 4.8 0.46 0.46 0.46 100 997.8
20211016184331 15 131 1.6 4.8 0.46 0.46 0.46 100 997.8
20211016183831 15 289 3.2 8.0 0.46 0.46 0.46 100 997.9
20211016183331 16 230 1.6 19.3 0.46 0.46 0.46 100 997.8
20211016181834 20 171 6.4 16.1 0.05 0.05 0.05 100 997.0
20211016181334 20 145 3.2 11.3 0.00 0.00 0.00 100 995.4
20211016180831 20 196 4.8 19.3 0.00 0.00 0.00 99 995.4
20211016180331 21 161 4.8 19.3 0.00 0.00 0.00 99 995.6
20211016174834 21 125 8.0 19.3 0.00 0.00 0.00 97 995.8
20211016174334 21 141 8.0 29.0 0.00 0.00 0.00 97 995.9
20211016173831 20 155 6.4 20.9 0.00 0.00 0.00 99 996.0
20211016173334 20 158 9.7 25.7 0.00 0.00 0.00 98 996.2
20211016171833 21 151 11.3 29.0 0.00 0.00 0.00 96 996.0
20211016171331 21 139 8.0 29.0 0.00 0.00 0.00 97 996.2
20211016170831 21 165 9.7 24.1 0.00 0.00 0.00 96 996.2
20211016170331 21 158 11.3 37.0 0.00 0.00 0.00 97 996.4
20211016164831 22 200 11.3 32.2 0.00 0.00 0.00 97 996.7
20211016164331 21 154 19.3 25.7 0.00 0.00 0.00 96 996.8
20211016163834 21 150 14.5 27.4 0.00 0.00 0.00 96 996.9
20211016163331 21 172 8.0 33.8 0.00 0.00 0.00 97 997.0
20211016161831 21 148 14.5 27.4 0.00 0.00 0.00 96 997.1
20211016161331 21 135 14.5 27.4 0.00 0.00 0.00 99 997.4
20211016160830 21 193 14.5 40.2 0.00 0.00 0.00 99 997.5
20211016160332 21 205 11.3 29.0 0.00 0.00 0.00 100 997.4